This is the latest recevied weather packets stored in our database for station/object N2PPN. If no packets are shown the sender has not sent any weather packets the latest 10 day(s).
| Time | Temp. | Humidity | Pressure | Rain* | Wind** | Luminosity | Snow |
|---|---|---|---|---|---|---|---|
| 1777142023 | 6.11° C | 90% | 1020.9 hPa | 1.78 mm | - | 123 W/m² | - |
| 1777141720 | 6.11° C | 88% | 1020.7 hPa | 1.78 mm | - | 101 W/m² | - |
| 1777141418 | 6.11° C | 89% | 1020.8 hPa | 0 mm | - | 129 W/m² | - |
| 1777141114 | 6.11° C | 88% | 1020.9 hPa | 0 mm | - | 129 W/m² | - |
| 1777140812 | 6.11° C | 87% | 1020.9 hPa | 0 mm | - | 110 W/m² | - |
| 1777140508 | 6.67° C | 89% | 1020.9 hPa | 0 mm | - | 117 W/m² | - |
| 1777140206 | 6.67° C | 88% | 1020.9 hPa | 0 mm | - | 124 W/m² | - |
| 1777139903 | 6.11° C | 87% | 1020.9 hPa | 0 mm | - | 137 W/m² | - |
| 1777139600 | 6.11° C | 87% | 1021 hPa | 0 mm | - | 141 W/m² | - |
| 1777139300 | 6.67° C | 87% | 1021.1 hPa | 0 mm | - | 148 W/m² | - |
| 1777138997 | 6.67° C | 87% | 1020.8 hPa | 1.27 mm | - | 195 W/m² | - |
| 1777138694 | 6.67° C | 89% | 1020.9 hPa | 1.27 mm | - | 203 W/m² | - |
| 1777138388 | 6.11° C | 87% | 1020.9 hPa | 0 mm | - | 225 W/m² | - |
| 1777138085 | 6.11° C | 86% | 1021.1 hPa | 1.78 mm | - | 191 W/m² | - |
| 1777137782 | 6.11° C | 87% | 1020.9 hPa | 1.78 mm | - | 161 W/m² | - |
| 1777137477 | 6.11° C | 87% | 1021.1 hPa | 0 mm | - | 123 W/m² | - |
| 1777137175 | 6.67° C | 87% | 1021.6 hPa | 0 mm | - | 84 W/m² | - |
| 1777136871 | 6.67° C | 87% | 1021.6 hPa | 0 mm | - | 82 W/m² | - |
| 1777136568 | 6.67° C | 86% | 1021.4 hPa | 0 mm | - | 109 W/m² | - |
| 1777136266 | 6.67° C | 88% | 1021.4 hPa | 1.27 mm | - | 108 W/m² | - |
| 1777135963 | 6.67° C | 90% | 1021.4 hPa | 1.27 mm | - | 122 W/m² | - |
| 1777135658 | 6.67° C | 91% | 1021.4 hPa | 1.78 mm | - | 113 W/m² | - |
| 1777135355 | 6.67° C | 87% | 1021.4 hPa | 3.56 mm | - | 116 W/m² | - |
| 1777135052 | 6.67° C | 87% | 1021.4 hPa | 1.78 mm | - | 112 W/m² | - |
| 1777134749 | 7.22° C | 86% | 1021.7 hPa | 0 mm | - | 112 W/m² | - |
* Rain latest hour (hover to see other rain measurements)
** Current wind speed in m/s (hover to see current wind gust speed)